[[{"header":{"parameterUnit":"m.s-1","parameterCategory":1,"la1":30.2991,"la2":30.254,"lo1":-89.0895,"lo2":-89.0444,"dy":0.0017,"dx":0.0017,"nx":28,"ny":28,"refTime":"2024-07-05T09:00:00:Z","depth":0,"parameterNumber":2,"parameterNumberName":"U-component_of_WINDS"},"data":[0,0,0,0,0,0,0,0,0,0,0,0,0,0,0,0,0,0,0,0,0,0,0,0,0,0,0,0,0,0,0,0,0,0,0,0,0,0,0,0,0,0,0,0,0,0,0,0,0,0,0,0,0,0,0,0,0,0,1.9186,1.9187,0,1.9301,1.9302,1.9304,1.9325,1.9324,1.9323,1.9322,1.9447,1.9451,1.9455,0,0,0,0,0,0,0,0,0,0,0,0,0,1.8992,1.8996,1.9186,1.9187,1.9189,1.9301,1.9302,1.9304,1.9325,1.9324,1.9323,1.9322,1.9446,1.945,1.9455,0,0,0,0,0,0,0,0,0,0,0,0,0,1.9089,1.8997,1.9186,1.9213,1.9216,1.93,1.9302,1.9304,1.9326,1.9324,1.9323,1.9321,1.9444,1.945,1.9456,1.9523,0,0,1.9475,1.9478,0,0,0,0,0,0,0,0,1.9083,1.9096,1.9208,1.9211,1.9215,1.9297,1.928,1.9378,1.9326,1.9284,1.9322,1.9321,1.9399,1.9409,1.9433,1.9529,1.9534,1.9476,1.948,1.9482,1.9484,0,0,0,0,0,0,0,1.9077,1.9091,1.9232,1.9209,1.9214,1.9222,1.9234,1.9298,1.9348,1.9288,1.929,1.9303,1.9401,1.9427,1.9437,1.9536,1.9476,1.9481,1.9485,1.9488,1.9694,1.9696,0,0,0,0,0,0,1.9064,1.9085,1.9228,1.9235,1.9144,1.9226,1.924,1.9272,1.9348,1.9358,1.9304,1.9303,1.9417,1.9429,1.9441,1.9525,1.9482,1.9488,1.9492,1.9693,1.9695,1.9697,0,0,0,0,0,0,1.906,1.9077,1.9223,1.9161,1.918,1.9231,1.9268,1.9275,1.9302,1.9359,1.9369,1.9321,1.9417,1.9432,1.9502,1.953,1.9491,1.9497,1.9691,1.9693,1.9696,1.9693,0,0,0,0,0,0,1.9054,1.9075,1.9099,1.9161,1.9183,1.9281,1.9269,1.9279,1.9312,1.9312,1.9379,1.9388,1.9417,1.9493,1.9509,1.9538,1.9502,1.9688,1.9692,1.9695,1.9691,1.9695,1.9699,0,0,0,0,0,1.9047,1.9095,1.91,1.9117,1.9214,1.9282,1.9295,1.9325,1.9314,1.934,1.9377,1.9386,1.9524,1.95,1.9518,1.9549,1.9687,1.9691,1.9695,1.9689,1.9695,1.9699,0,0,0,0,0,0,1.9037,1.9104,1.911,1.9179,1.9224,1.9286,1.9319,1.9329,1.9381,1.9379,1.9416,1.9431,1.9499,1.9532,1.9503,1.9619,1.9605,1.9613,1.9595,1.9601,1.9604,1.9596,1.9507,0,0,0,0,0,1.9043,1.909,1.9147,1.9202,1.9224,1.9268,1.9299,1.9317,1.9367,1.9387,1.9429,1.9479,1.9534,1.9569,1.9622,1.9696,1.9712,1.9727,1.9731,1.9734,1.974,1.9783,1.979,1.9709,1.9709,1.9709,0,0,1.9055,1.9097,1.9125,1.9201,1.9239,1.9289,1.9284,1.9337,1.9376,1.9396,1.9464,1.9497,1.9555,1.9628,1.9662,1.9657,1.9766,1.9738,1.974,1.9745,1.9787,1.9795,1.9802,1.9712,1.9711,1.9711,0,0,1.9103,1.9139,1.919,1.9227,1.9283,1.9312,1.9324,1.9384,1.9406,1.9475,1.9491,1.9539,1.9632,1.9673,1.9706,1.977,1.9781,1.9787,1.9808,1.9849,1.9856,1.9862,1.9886,1.9894,1.9793,1.9793,1.9793,0,1.9112,1.9187,1.9215,1.9268,1.9302,1.932,1.9373,1.9409,1.948,1.9504,1.9497,1.9614,1.9655,1.9737,1.9753,1.9779,1.9796,1.978,1.9852,1.9858,1.9864,1.9888,1.9896,1.9794,1.9793,1.9793,1.9793,0,1.9196,1.9247,1.9282,1.9348,1.9386,1.9438,1.9477,1.9512,1.9528,1.9558,1.9629,1.9678,1.9742,1.9763,1.978,1.9849,1.9844,1.9844,1.9831,1.9872,1.9894,1.9904,1.9794,1.9794,1.9794,1.9794,0,0,1.9241,1.9322,1.9334,1.9365,1.9429,1.947,1.9525,1.9585,1.9615,1.9665,1.9712,1.9791,1.9791,1.9828,1.985,1.9886,1.9936,1.9882,1.9884,1.9891,2.0016,2.0016,2.0026,1.9943,1.9945,1.9946,2.0011,0,1.9297,1.9392,1.942,1.9501,1.955,1.9568,1.9616,1.9662,1.9692,1.9739,1.9774,1.9829,1.9824,1.9847,1.9883,1.9922,1.9962,1.9918,1.999,1.9992,1.9975,2.0037,2.0038,2.0096,2.002,2.0022,2.0023,0,1.9375,1.9424,1.9509,1.9567,1.9589,1.9631,1.9689,1.9734,1.9787,1.9806,1.9848,1.9867,1.9927,1.991,1.9994,1.9963,1.9995,2.0019,2.0022,2.003,2.001,2.0048,2.0116,2.0125,2.0037,2.0036,2.0035,0,1.94,1.9487,1.955,1.9576,1.9645,1.9674,1.9705,1.9756,1.9791,1.9843,1.9866,1.9925,1.9957,2.0004,2.0039,2.0023,2.012,2.0106,2.014,2.0139,2.016,2.0158,2.0234,2.0179,2.0179,2.0179,2.0179,0,1.9461,1.9512,1.9562,1.96,1.9659,1.9692,1.975,1.9782,1.9828,1.9875,1.9895,1.9939,1.9983,2.0033,2.0061,2.0127,2.0142,2.0161,2.0168,2.0159,2.0157,2.0181,2.0178,2.0181,2.0181,2.018,2.018,0,1.9499,1.9534,1.9603,1.9662,1.9679,1.972,1.9772,1.9811,1.9842,1.9901,1.9917,1.9966,2.0026,2.0065,2.0143,2.0162,2.0235,2.024,2.0216,2.0219,2.0251,2.0247,2.0345,2.036,2.0294,2.0295,2.0295,0,1.9535,1.9575,1.9638,1.967,1.97,1.9751,1.9786,1.9821,1.9857,1.9921,1.9953,2.0014,2.0065,2.0161,2.0205,2.0265,2.0273,2.0303,2.0282,2.0272,2.0274,2.0271,2.0276,2.0306,2.0307,2.0307,2.0308,0,1.9596,1.9611,1.966,1.9716,1.9757,1.9803,1.9849,1.9874,1.9917,1.9957,2.0018,2.0057,2.0136,2.0197,2.0261,2.0295,2.0309,2.0314,2.0325,2.0316,2.0301,2.031,2.0225,2.0311,2.0311,2.0311,2.0311,2.031,1.9635,1.9671,1.9721,1.9776,1.9814,1.9856,1.9896,1.9931,1.9982,2.0047,2.0065,2.0129,2.0183,2.0269,2.0305,2.0357,2.0354,2.0369,2.0374,2.0377,2.0377,2.0292,2.0369,2.0369,2.0369,2.0369,2.0369,0,1.9697,1.973,1.978,1.9843,1.9886,1.9893,1.9945,1.9981,2.0036,2.0084,2.0133,2.0204,2.0264,2.0312,2.0374,2.0407,2.0415,2.0422,2.042,2.0428,2.0377,2.0361,2.0414,2.0414,2.0414,2.0414,2.0414,2.0414,1.9735,1.9797,1.9819,1.9901,1.9935,1.9995,2.0024,2.0065,2.0103,2.018,2.0229,2.0259,2.0308,2.0374,2.043,2.0443,2.0465,2.0471,2.0485,2.0437,2.0432,2.0427,2.0412,2.0475,2.0475,2.0533,2.0533,2.0534]},{"header":{"parameterUnit":"m.s-1","parameterCategory":1,"la1":30.2991,"la2":30.254,"lo1":-89.0895,"lo2":-89.0444,"dy":0.0017,"dx":0.0017,"nx":28,"ny":28,"refTime":"2024-07-05T09:00:00:Z","depth":0,"parameterNumber":3,"parameterNumberName":"V-component_of_WINDS"},"data":[0,0,0,0,0,0,0,0,0,0,0,0,0,0,0,0,0,0,0,0,0,0,0,0,0,0,0,0,0,0,0,0,0,0,0,0,0,0,0,0,0,0,0,0,0,0,0,0,0,0,0,0,0,0,0,0,0,0,1.7574,1.7574,0,1.7557,1.7557,1.7557,1.7535,1.7535,1.7535,1.7534,1.7515,1.7515,1.7515,0,0,0,0,0,0,0,0,0,0,0,0,0,1.7584,1.7584,1.7574,1.7574,1.7574,1.7557,1.7557,1.7557,1.7535,1.7535,1.7535,1.7534,1.7515,1.7515,1.7515,0,0,0,0,0,0,0,0,0,0,0,0,0,1.7575,1.7584,1.7574,1.7561,1.756,1.7557,1.7557,1.7557,1.7536,1.7535,1.7535,1.7534,1.7515,1.7515,1.7515,1.7523,0,0,1.7514,1.7514,0,0,0,0,0,0,0,0,1.7575,1.7574,1.7563,1.7562,1.7561,1.7548,1.7554,1.7545,1.7536,1.7545,1.7534,1.7534,1.7526,1.7525,1.7523,1.7522,1.7521,1.7514,1.7514,1.7513,1.7513,0,0,0,0,0,0,0,1.7576,1.7575,1.7567,1.7563,1.7561,1.7555,1.7553,1.7552,1.7539,1.7544,1.7542,1.7541,1.7525,1.7523,1.7522,1.7521,1.7514,1.7514,1.7513,1.7513,1.7523,1.7524,0,0,0,0,0,0,1.7579,1.7576,1.7568,1.7567,1.7567,1.7555,1.7553,1.7552,1.7539,1.7536,1.7541,1.754,1.7524,1.7523,1.7522,1.7529,1.7513,1.7513,1.7513,1.7523,1.7523,1.7524,0,0,0,0,0,0,1.7579,1.7578,1.7569,1.7571,1.7569,1.7556,1.7555,1.7552,1.755,1.7536,1.7534,1.7542,1.7524,1.7522,1.7522,1.7528,1.7513,1.7513,1.7522,1.7523,1.7524,1.7544,0,0,0,0,0,0,1.758,1.7579,1.7583,1.7571,1.7569,1.7571,1.7555,1.7552,1.755,1.7548,1.7536,1.7534,1.7523,1.7523,1.7522,1.7527,1.7513,1.7522,1.7523,1.7523,1.7543,1.7545,1.7547,0,0,0,0,0,1.758,1.7589,1.7583,1.7582,1.7574,1.7571,1.757,1.7558,1.7551,1.7554,1.7544,1.7534,1.7527,1.7523,1.7522,1.7527,1.7521,1.7522,1.7523,1.7542,1.7545,1.7547,0,0,0,0,0,0,1.7602,1.7588,1.7581,1.7587,1.758,1.7568,1.7572,1.7562,1.7557,1.7556,1.7541,1.7538,1.754,1.7533,1.7529,1.7533,1.7523,1.7523,1.7537,1.754,1.7542,1.7543,1.7512,0,0,0,0,0,1.7608,1.7608,1.7595,1.7601,1.7598,1.7586,1.7584,1.7575,1.7568,1.7565,1.7556,1.7548,1.7544,1.7542,1.7537,1.7542,1.7537,1.7544,1.7547,1.7548,1.7549,1.7548,1.7551,1.7527,1.7527,1.7527,0,0,1.7619,1.7611,1.7612,1.7605,1.7599,1.7598,1.7583,1.7583,1.7582,1.7565,1.7564,1.7557,1.7547,1.7549,1.7549,1.7544,1.7555,1.755,1.7551,1.7551,1.755,1.7552,1.7554,1.7528,1.7528,1.7527,0,0,1.7639,1.7634,1.7638,1.7632,1.7623,1.7614,1.7615,1.7603,1.7598,1.7597,1.7583,1.758,1.7574,1.7567,1.7563,1.7578,1.7567,1.7577,1.7588,1.7588,1.759,1.7591,1.7595,1.7596,1.7577,1.7577,1.7577,0,1.7654,1.7653,1.7641,1.7641,1.7637,1.7622,1.7624,1.7619,1.7609,1.7606,1.76,1.759,1.7583,1.7581,1.7585,1.7583,1.7581,1.7578,1.7591,1.7592,1.7593,1.7596,1.7598,1.7579,1.7578,1.7578,1.7578,0,1.7671,1.767,1.7674,1.7664,1.7661,1.7662,1.7649,1.7647,1.7638,1.7629,1.7627,1.7617,1.761,1.7609,1.76,1.7605,1.7602,1.7594,1.7583,1.7597,1.7599,1.7601,1.758,1.758,1.7579,1.7579,0,0,1.7705,1.7687,1.7689,1.7683,1.7671,1.767,1.7669,1.7662,1.766,1.7653,1.7651,1.7645,1.7636,1.7631,1.7622,1.7621,1.7631,1.7613,1.7612,1.7615,1.7634,1.7639,1.7641,1.7624,1.7624,1.7624,1.7634,0,1.7721,1.772,1.7708,1.771,1.7708,1.7692,1.7691,1.7683,1.7674,1.767,1.766,1.7655,1.7646,1.7642,1.7641,1.763,1.7634,1.7629,1.762,1.762,1.7622,1.7643,1.7649,1.7658,1.7635,1.7635,1.7635,0,1.774,1.7734,1.7736,1.7722,1.7721,1.7721,1.7711,1.7708,1.7698,1.7691,1.7684,1.7673,1.767,1.766,1.7654,1.7651,1.7647,1.764,1.764,1.7638,1.7628,1.764,1.7661,1.7662,1.7637,1.7637,1.7637,0,1.7762,1.7755,1.7754,1.775,1.7735,1.7734,1.7728,1.7717,1.7712,1.7704,1.7701,1.7692,1.7687,1.768,1.7666,1.7661,1.7661,1.7651,1.7654,1.7654,1.7654,1.7654,1.7674,1.7653,1.7653,1.7653,1.7653,0,1.7781,1.7782,1.7764,1.7763,1.7763,1.7749,1.7749,1.7741,1.7731,1.7727,1.7713,1.7709,1.7692,1.7686,1.7675,1.767,1.7669,1.7662,1.7659,1.7663,1.7663,1.7659,1.7657,1.7654,1.7654,1.7654,1.7654,0,1.7806,1.7794,1.7791,1.7776,1.7773,1.7773,1.776,1.7758,1.7748,1.7743,1.7741,1.7725,1.7717,1.7702,1.7691,1.7683,1.768,1.7676,1.7684,1.7682,1.7685,1.7685,1.7702,1.7703,1.7683,1.7683,1.7683,0,1.7818,1.7818,1.7803,1.78,1.7794,1.7789,1.7784,1.7769,1.7765,1.7752,1.7751,1.7742,1.7734,1.7722,1.7708,1.7698,1.7692,1.7699,1.7691,1.7694,1.7691,1.769,1.769,1.7701,1.7701,1.7701,1.7702,0,1.784,1.7834,1.7828,1.782,1.7814,1.7807,1.7799,1.7796,1.7779,1.7774,1.7766,1.776,1.7747,1.7738,1.7726,1.7717,1.7706,1.7704,1.7704,1.7708,1.7712,1.7708,1.7688,1.7704,1.7704,1.7704,1.7703,1.7703,1.7858,1.7857,1.7845,1.7839,1.7831,1.7823,1.782,1.7809,1.7803,1.7791,1.7783,1.7775,1.7762,1.7745,1.7737,1.7729,1.7724,1.7724,1.7724,1.7724,1.7725,1.7714,1.7727,1.7727,1.7727,1.7727,1.7727,0,1.7878,1.7869,1.7864,1.7852,1.7847,1.7837,1.7827,1.7822,1.7816,1.7805,1.7798,1.7787,1.7778,1.7763,1.7752,1.7748,1.7743,1.7746,1.7745,1.7743,1.7731,1.7732,1.775,1.775,1.775,1.775,1.775,1.775,1.7887,1.7884,1.7876,1.7869,1.786,1.7853,1.7847,1.7839,1.7831,1.782,1.7812,1.7803,1.779,1.7777,1.7767,1.7763,1.7759,1.7764,1.7758,1.7746,1.7744,1.7742,1.7742,1.7763,1.7763,1.777,1.777,1.777]}]]